FW5359 Weather Reports


time (UTC)temp
F
wind
direction
speed
knots
gust
knots
rain 1hr
in
rain 24hr
in
rain mn
in
humidity
%
barometer
mb
20220811232508 75 282 0.0 0.9 0.00 0.08 0.08 91 972.2
20220811231457 75 282 0.0 1.7 0.00 0.08 0.08 91 972.1
20220811230950 75 284 0.0 1.7 0.00 0.08 0.08 91 972.0
20220811225938 75 284 0.9 2.6 0.00 0.08 0.08 90 971.6
20220811225432 75 288 0.0 1.7 0.01 0.08 0.08 91 971.7
20220811224420 75 288 1.7 7.0 0.02 0.08 0.08 89 971.6
20220811223408 75 290 3.5 7.8 0.06 0.08 0.08 88 972.0
20220811222902 75 303 3.5 10.4 0.08 0.08 0.08 88 972.3
20220811221345 75 289 3.5 11.3 0.08 0.08 0.08 88 972.6
20220811220332 76 137 1.7 7.0 0.08 0.08 0.08 88 973.0
20220811214814 78 60 2.6 7.0 0.07 0.07 0.07 85 972.8
20220811212750 86 38 2.6 7.8 0.00 0.00 0.00 67 972.5
20220811212244 88 23 1.7 7.8 0.00 0.00 0.00 61 972.6
20220811211240 91 186 3.5 10.4 0.00 0.00 0.00 53 972.2
20220811210741 93 289 1.7 7.8 0.00 0.00 0.00 48 972.2
20220811210240 94 223 1.7 4.3 0.00 0.00 0.00 45 972.1
20220811205238 94 126 1.7 4.3 0.00 0.00 0.00 45 971.9
20220811204736 94 105 1.7 5.2 0.00 0.00 0.00 45 972.0
20220811204237 95 262 1.7 5.2 0.00 0.00 0.00 45 972.1
20220811202734 93 194 1.7 6.1 0.00 0.00 0.00 46 972.1
20220811201234 93 102 2.6 8.7 0.00 0.00 0.00 46 972.3
20220811200732 94 95 2.6 8.7 0.00 0.00 0.00 45 972.4
20220811200232 94 82 3.5 7.8 0.00 0.00 0.00 44 972.5
20220811195732 95 77 2.6 8.7 0.00 0.00 0.00 44 972.5
20220811195232 96 136 2.6 10.4 0.00 0.00 0.00 44 972.6
20220811194730 95 153 2.6 10.4 0.00 0.00 0.00 45 972.7
20220811194230 95 183 2.6 7.0 0.00 0.00 0.00 46 972.7
20220811193730 94 90 3.5 9.6 0.00 0.00 0.00 46 972.8
20220811193230 93 108 3.5 10.4 0.00 0.00 0.00 48 972.8
20220811192230 94 85 1.7 7.8 0.00 0.00 0.00 46 973.1
20220811191230 94 57 2.6 9.6 0.00 0.00 0.00 46 973.1
20220811190225 94 137 1.7 6.1 0.00 0.00 0.00 45 973.2
20220811184726 95 183 1.7 5.2 0.00 0.00 0.00 44 973.6
20220811183728 94 213 1.7 4.3 0.00 0.00 0.00 46 973.7
20220811183229 94 218 1.7 6.1 0.00 0.00 0.00 46 973.8
20220811182728 93 267 1.7 6.1 0.00 0.00 0.00 46 973.9
20220811180722 93 63 2.6 7.8 0.00 0.00 0.00 46 974.2
20220811180222 94 173 1.7 7.0 0.00 0.00 0.00 46 974.3
20220811175722 94 32 0.9 4.3 0.00 0.00 0.00 45 974.3
20220811175222 94 72 0.9 2.6 0.00 0.00 0.00 45 974.4
20220811174722 94 74 0.9 2.6 0.00 0.00 0.00 45 974.5
20220811173720 94 52 2.6 6.1 0.00 0.00 0.00 46 974.7
20220811172722 94 120 1.7 7.0 0.00 0.00 0.00 46 974.9
20220811170216 93 74 1.7 4.3 0.00 0.00 0.00 48 975.2
20220811164702 92 219 0.9 3.5 0.00 0.00 0.00 49 975.4
20220811164157 92 127 1.7 6.1 0.00 0.00 0.00 51 975.4
20220811162133 92 133 1.7 5.2 0.00 0.00 0.00 51 975.4
20220811160109 91 114 1.7 6.1 0.00 0.00 0.00 51 975.4
20220811155604 91 151 1.7 6.1 0.00 0.00 0.00 51 975.4
20220811154551 90 130 1.7 6.1 0.00 0.00 0.00 53 975.4
20220811153539 89 75 0.9 4.3 0.00 0.00 0.00 55 975.4
20220811153033 89 9 1.7 5.2 0.00 0.00 0.00 56 975.4
20220811152526 88 305 1.7 5.2 0.00 0.00 0.00 58 975.4
20220811151515 87 246 0.9 4.3 0.00 0.00 0.00 60 975.4
20220811151009 87 241 0.9 4.3 0.00 0.00 0.00 60 975.3
20220811150503 86 186 0.9 3.5 0.00 0.00 0.00 61 975.3
20220811145957 86 186 0.9 3.5 0.00 0.00 0.00 63 975.4
20220811144945 85 170 0.9 4.3 0.00 0.00 0.00 66 975.3
20220811144439 84 277 1.7 4.3 0.00 0.00 0.00 67 975.4
20220811143933 84 183 1.7 4.3 0.00 0.00 0.00 69 975.4
20220811142420 82 207 0.9 4.3 0.00 0.00 0.00 72 975.4
20220811141919 82 235 0.9 4.3 0.00 0.00 0.00 72 975.5
20220811141417 82 171 0.9 4.3 0.00 0.00 0.00 74 975.5
20220811140917 81 215 0.9 2.6 0.00 0.00 0.00 73 975.4
20220811134913 80 224 0.9 1.7 0.00 0.00 0.00 78 975.2
20220811134413 79 185 0.0 1.7 0.00 0.00 0.00 79 975.2
20220811133409 78 183 0.9 2.6 0.00 0.00 0.00 80 975.1
20220811132907 78 182 0.0 0.9 0.00 0.00 0.00 82 974.9
20220811131401 76 180 0.0 0.9 0.00 0.00 0.00 84 974.9
20220811130859 76 180 0.0 0.9 0.00 0.00 0.00 84 974.8
20220811125357 75 180 0.0 0.9 0.00 0.00 0.00 85 974.8
20220811123849 74 180 0.0 0.9 0.00 0.00 0.00 84 974.7
20220811122349 74 180 0.0 0.0 0.00 0.00 0.00 86 974.6
20220811121348 74 180 0.0 0.9 0.00 0.00 0.00 86 974.7
20220811120849 74 180 0.0 0.9 0.00 0.00 0.00 86 974.7
20220811115850 74 180 0.0 0.0 0.00 0.00 0.00 85 974.6
20220811112848 75 180 0.0 0.0 0.00 0.00 0.00 84 974.6
20220811112349 75 180 0.0 0.0 0.00 0.00 0.00 83 974.6
20220811110334 76 180 0.0 0.9 0.00 0.00 0.00 83 974.4
20220811105829 76 180 0.0 0.9 0.00 0.00 0.00 84 974.5
20220811105322 76 180 0.0 0.0 0.00 0.00 0.00 84 974.5
20220811104816 76 180 0.0 0.0 0.00 0.00 0.00 83 974.5
20220811104310 76 180 0.0 0.0 0.00 0.00 0.00 83 974.5
20220811103805 76 180 0.0 0.0 0.00 0.00 0.00 83 974.6
20220811102752 76 180 0.0 1.7 0.00 0.00 0.00 83 974.6
20220811102246 76 178 0.0 1.7 0.00 0.00 0.00 83 974.7
20220811101235 76 178 0.0 1.7 0.00 0.00 0.00 82 974.8
20220811095717 76 178 0.0 1.7 0.00 0.00 0.00 82 974.9
20220811095210 76 178 0.0 1.7 0.00 0.00 0.00 82 974.8
20220811094704 76 178 0.0 0.9 0.00 0.00 0.00 82 974.8
20220811094158 77 178 0.0 0.9 0.00 0.00 0.00 82 974.8
20220811093147 77 178 0.0 1.7 0.00 0.00 0.00 81 974.8
20220811091122 77 177 0.0 2.6 0.00 0.00 0.00 80 975.1
20220811090616 77 176 0.0 1.7 0.00 0.00 0.00 80 975.2
20220811090110 77 176 0.0 1.7 0.00 0.00 0.00 80 975.1
20220811085059 77 176 0.0 1.7 0.00 0.00 0.00 79 975.1
20220811084553 77 175 0.0 2.6 0.00 0.00 0.00 79 975.2
20220811084046 78 175 0.9 2.6 0.00 0.00 0.00 79 975.4
20220811082531 78 169 0.9 3.5 0.00 0.00 0.00 78 975.6
20220811081516 78 170 0.0 1.7 0.00 0.00 0.00 78 975.4
20220811073934 78 171 0.0 1.7 0.00 0.00 0.00 77 975.6
20220811073428 78 171 0.0 3.5 0.00 0.00 0.00 77 975.6
20220811071404 78 102 0.0 0.9 0.00 0.00 0.00 75 976.0
20220811065340 79 101 0.0 0.9 0.00 0.00 0.00 75 976.1
20220811064835 79 101 0.0 3.5 0.00 0.00 0.00 75 976.2
20220811064328 79 101 0.0 3.5 0.00 0.00 0.00 74 976.3
20220811062810 79 117 0.9 2.6 0.00 0.00 0.00 74 976.2
20220811062305 79 117 0.9 2.6 0.00 0.00 0.00 74 976.3
20220811061252 79 116 0.9 3.5 0.00 0.00 0.00 74 976.2
20220811055246 79 95 1.7 4.3 0.00 0.00 0.00 73 976.2
20220811050749 80 120 1.7 6.1 0.00 0.00 0.00 71 975.9
20220811045237 81 96 2.6 10.4 0.00 0.00 0.00 70 976.1
20220811043212 82 78 3.5 11.3 0.00 0.00 0.00 68 976.4
20220811042200 82 64 3.5 8.7 0.00 0.00 0.00 67 976.5
20220811041653 82 99 3.5 9.6 0.00 0.00 0.00 67 976.4
20220811041149 83 80 4.3 10.4 0.00 0.00 0.00 66 976.4
20220811035630 83 98 4.3 15.6 0.00 0.00 0.00 66 976.2
20220811033100 84 67 1.7 5.2 0.00 0.00 0.00 62 975.6
20220811032553 84 63 1.7 6.1 0.00 0.00 0.00 62 975.5
20220811030530 84 75 1.7 7.0 0.00 0.00 0.00 61 975.2
20220811030025 84 79 0.9 3.5 0.00 0.00 0.00 61 975.3
20220811025518 84 76 1.7 5.2 0.00 0.00 0.00 61 975.1
20220811023959 85 72 2.6 8.7 0.00 0.00 0.00 61 974.7
20220811023454 85 42 2.6 8.7 0.00 0.00 0.00 61 974.6
20220811022949 85 102 3.5 8.7 0.00 0.00 0.00 60 974.4
20220811022443 85 54 3.5 8.7 0.00 0.00 0.00 60 974.3
20220811020418 85 98 3.5 11.3 0.00 0.00 0.00 60 974.3
20220811015418 85 31 2.6 12.2 0.00 0.00 0.00 61 974.2
20220811012916 84 53 2.6 7.8 0.00 0.00 0.00 64 974.1
20220811011417 86 80 3.5 10.4 0.00 0.00 0.00 61 974.0
20220811010417 87 34 5.2 12.2 0.00 0.00 0.00 58 973.7
20220811004918 88 82 4.3 12.2 0.00 0.00 0.00 54 973.3
20220811003417 90 64 4.3 11.3 0.00 0.00 0.00 51 973.2
20220811002917 92 355 4.3 13.0 0.00 0.00 0.00 49 973.2
20220811001919 97 46 1.7 5.2 0.00 0.00 0.00 36 972.8
20220811000417 98 75 0.9 3.5 0.00 0.00 0.00 35 972.5
20220810235914 98 130 0.9 5.2 0.00 0.00 0.00 36 972.5
20220810235413 98 148 1.7 5.2 0.00 0.00 0.00 36 972.4
20220810234914 98 180 1.7 7.0 0.00 0.00 0.00 36 972.5
20220810232913 99 132 1.7 7.0 0.00 0.00 0.00 35 972.6